Greenwich, CT

4:49 AM EST on February 25, 2017 (GMT -0500)
Westchester County

Weather History for KHPN - June, 2013

Change the Weather History Date:

Sunday, June 2, 2013

  Actual Average Record
Temperature  
Mean Temperature 75 °F -  
Max Temperature 84 °F 69 °F 88 °F (1989)
Min Temperature 66 °F 51 °F 47 °F (1984)
Cooling Degree Days 10    
Growing Degree Days 25 (Base 50)    
Moisture  
Dew Point 66 °F    
Average Humidity 74    
Maximum Humidity 90    
Minimum Humidity 56    
Precipitation  
Precipitation 0.26 in - - ()
Sea Level Pressure  
Sea Level Pressure 29.82 in    
Wind  
Wind Speed 5 mph (SSE)    
Max Wind Speed 15 mph    
Max Gust Speed 22 mph    
Visibility 9 miles    
Events Rain , Thunderstorm    
Averages and records for this station are not official NWS values.
T = Trace of Precipitation, MM = Missing Value Source: NWS Daily Summary

Daily Weather History Graph

Daily Weather History Graph

Search for Another Location

Airport or City:

Trip Planner

Search our weather history database for the weather conditions in past years. The results will help you decide how hot, cold, wet, or windy it might be!

Date:

Astronomy

Jun. 02, 2013 Rise Set
Actual Time 5:24 AM EDT 8:21 PM EDT
Civil Twilight 4:51 AM EDT 8:54 PM EDT
Nautical Twilight 4:09 AM EDT 9:36 PM EDT
Astronomical Twilight 3:20 AM EDT 10:25 PM EDT
Moon 1:52 AM EDT (6/2) 2:47 PM EDT (6/2)
Length of Visible Light 16h 03m
Length of Day
14h 57m
Waning Crescent, 31% of the Moon is Illuminated
Jun 2
Waning Crescent
Jun 8
New
Jun 16
First Quarter
Jun 23
Full
Jun 30
Last Quarter

Hourly Weather History & Observations

Time (EDT) Temp. Heat Index Dew Point Humidity Pressure Visibility Wind Dir Wind Speed Gust Speed Precip Events Conditions
12:56 AM 70.0 °F - 64.0 °F 81% 29.90 in 10.0 mi Calm Calm - N/A   Clear
1:56 AM 68.0 °F - 64.0 °F 87% 29.88 in 9.0 mi SSE 3.5 mph - N/A   Clear
2:56 AM 68.0 °F - 64.0 °F 87% 29.86 in 9.0 mi SE 3.5 mph - N/A   Clear
3:56 AM 66.0 °F - 63.0 °F 90% 29.86 in 8.0 mi SE 3.5 mph - N/A   Clear
4:56 AM 66.0 °F - 63.0 °F 90% 29.87 in 9.0 mi Calm Calm - N/A   Clear
5:56 AM 66.0 °F - 63.0 °F 90% 29.86 in 8.0 mi SE 3.5 mph - N/A   Clear
6:56 AM 69.1 °F - 64.0 °F 84% 29.86 in 10.0 mi South 3.5 mph - N/A   Clear
7:56 AM 72.0 °F - 64.9 °F 78% 29.86 in 10.0 mi SSE 5.8 mph - N/A   Clear
8:56 AM 75.0 °F - 66.0 °F 73% 29.85 in 10.0 mi South 6.9 mph - N/A   Clear
9:56 AM 79.0 °F - 66.9 °F 66% 29.83 in 10.0 mi SE 9.2 mph - N/A   Clear
10:56 AM 81.0 °F 83.3 °F 66.9 °F 62% 29.83 in 10.0 mi South 9.2 mph - N/A   Partly Cloudy
11:56 AM 82.0 °F 84.5 °F 66.9 °F 60% 29.83 in 10.0 mi South 13.8 mph - N/A   Scattered Clouds
12:56 PM 82.9 °F 85.0 °F 66.0 °F 56% 29.82 in 10.0 mi South 11.5 mph 17.3 mph N/A   Scattered Clouds
1:56 PM 84.0 °F 86.5 °F 66.9 °F 56% 29.79 in 10.0 mi SSE 15.0 mph 21.9 mph N/A   Scattered Clouds
2:56 PM 82.9 °F 85.4 °F 66.9 °F 58% 29.78 in 10.0 mi South 9.2 mph - N/A   Mostly Cloudy
3:56 PM 82.9 °F 85.4 °F 66.9 °F 58% 29.78 in 10.0 mi South 12.7 mph - N/A   Scattered Clouds
4:29 PM 78.8 °F - 66.2 °F 65% 29.80 in 0.5 mi Variable 4.6 mph 18.4 mph 0.14 in Rain , Thunderstorm Thunderstorms and Rain
4:33 PM 75.2 °F - 66.2 °F 73% 29.79 in 8.0 mi Calm Calm - 0.14 in Thunderstorm Thunderstorm
4:43 PM 78.8 °F - 68.0 °F 69% 29.79 in 7.0 mi SSE 10.4 mph - 0.14 in Thunderstorm Scattered Clouds
4:56 PM 80.1 °F 82.7 °F 68.0 °F 67% 29.77 in 10.0 mi SSE 10.4 mph 19.6 mph 0.14 in   Partly Cloudy
5:56 PM 78.1 °F - 64.9 °F 64% 29.76 in 10.0 mi South 8.1 mph - N/A   Scattered Clouds
6:56 PM 77.0 °F - 64.9 °F 66% 29.78 in 10.0 mi South 5.8 mph - N/A   Mostly Cloudy
7:56 PM 75.0 °F - 64.9 °F 71% 29.79 in 10.0 mi SSE 3.5 mph - N/A   Scattered Clouds
7:58 PM 75.2 °F - 64.4 °F 69% 29.80 in 10.0 mi SSE 3.5 mph - N/A Thunderstorm Scattered Clouds
8:45 PM 73.4 °F - 68.0 °F 83% 29.82 in 10.0 mi West 3.5 mph - 0.00 in Rain Light Rain
8:56 PM 75.0 °F - 66.9 °F 76% 29.81 in 10.0 mi WSW 3.5 mph - 0.00 in Thunderstorm Thunderstorm
9:40 PM 73.4 °F - 64.4 °F 73% 29.82 in 10.0 mi Calm Calm - N/A   Mostly Cloudy
9:56 PM 73.0 °F - 64.9 °F 76% 29.81 in 10.0 mi South 8.1 mph - N/A   Mostly Cloudy
10:56 PM 72.0 °F - 64.9 °F 78% 29.81 in 10.0 mi Calm Calm - N/A   Scattered Clouds
11:21 PM 71.6 °F - 64.4 °F 78% 29.83 in 6.0 mi Variable 3.5 mph 17.3 mph 0.02 in Rain , Thunderstorm Light Thunderstorms and Rain
11:35 PM 69.8 °F - 66.2 °F 88% 29.83 in 2.5 mi Variable 3.5 mph - 0.09 in Rain , Thunderstorm Thunderstorms and Rain
11:56 PM 71.1 °F - 66.9 °F 87% 29.81 in 10.0 mi Variable 3.5 mph - 0.12 in Thunderstorm Mostly Cloudy